RH
5 5 5 5 4 14 11 17 23 33 50 55 59 55 56 54 61 62 40 24 24 20 37 38 39 41 55 48 65 62 57 56 61 60 57 63 65 64 65 63 62 62 60 50 49 59 62 68 78
4 4 5 5 21 14 14 19 24 27 39 52 64 59 56 59 64 36 23 23 26 25 28 31 32 30 34 52 55 62 60 55 50 51 54 56 62 64 67 68 66 67 66 64 58 55 52 49 58
4 4 4 5 14 18 17 19 31 20 19 33 45 36 32 44 34 32 26 22 17 24 25 25 24 23 22 25 30 59 65 58 47 45 50 48 51 58 67 68 69 70 67 67 68 67 62 60 58
4 4 6 11 9 21 28 26 17 14 21 32 31 30 29 29 28 29 26 18 18 18 24 23 22 21 20 22 23 28 31 36 36 44 48 50 50 56 64 67 68 72 71 68 69 72 72 70 67
5 4 8 11 10 21 29 28 22 11 16 25 26 24 25 28 26 24 21 19 17 16 18 18 18 16 16 16 17 18 18 17 18 24 33 40 47 58 59 63 62 66 64 65 68 72 75 76 77
6 11 12 18 20 23 33 26 15 25 20 18 19 23 24 22 22 20 20 19 18 16 16 16 17 17 17 17 17 17 16 16 16 16 18 22 28 32 37 44 48 50 56 58 62 65 72 74 77
7 22 22 19 25 26 21 35 44 34 18 25 22 24 24 22 22 22 22 22 19 18 19 18 17 16 16 15 15 15 14 13 13 12 12 12 13 13 14 16 17 23 28 38 43 45 52 57 58
10 28 26 22 26 27 18 24 49 41 20 17 17 18 18 21 22 24 24 22 20 21 20 17 16 16 14 9 5 4 4 4 4 4 4 4 4 4 4 4 5 5 6 8 10 16 27 38 42
19 23 25 21 28 30 21 18 37 29 29 18 18 11 18 21 23 24 23 20 18 18 17 16 16 11 5 4 4 3 4 4 5 6 6 7 7 8 8 8 8 8 8 8 7 7 7 10 15
20 26 28 30 31 31 26 14 14 19 14 20 19 19 20 20 24 23 20 18 17 17 16 14 8 4 4 3 4 4 5 6 6 7 8 9 10 10 10 10 10 10 10 10 9 9 9 9 9
22 23 29 33 31 28 27 12 20 18 20 19 22 20 22 25 24 21 20 18 18 15 9 5 4 3 3 4 5 6 7 8 9 10 11 11 10 9 8 8 8 9 10 11 12 12 12 11 10
25 28 30 32 28 25 21 12 17 24 21 15 18 24 27 25 22 21 20 20 15 8 4 4 3 4 5 6 8 9 10 11 12 11 10 9 8 9 12 14 13 13 13 14 14 13 14 13 14
39 31 35 28 24 14 14 15 23 17 21 19 23 28 26 24 22 21 20 14 6 4 3 3 4 6 7 9 10 12 14 14 14 11 10 10 12 14 13 14 19 17 14 14 17 17 15 14 14
32 27 27 21 15 14 15 16 17 19 23 24 27 26 25 23 21 17 11 6 4 3 3 4 6 8 10 12 14 16 16 13 10 10 12 14 14 14 19 21 22 18 18 18 19 17 14 13 14
38 26 19 17 18 22 18 22 22 21 24 26 26 25 23 22 14 8 6 4 3 3 4 6 8 10 13 16 16 15 11 12 13 17 18 14 16 18 22 24 23 21 20 21 17 15 16 16 15
35 25 22 20 21 24 26 28 25 22 28 26 26 24 24 16 8 5 4 3 3 4 6 8 11 14 16 15 12 11 13 18 18 18 16 19 22 24 26 24 22 23 23 17 16 16 15 16 18
41 27 31 26 26 26 30 33 32 25 27 25 24 24 20 10 6 4 4 4 4 6 8 11 15 16 15 12 13 16 21 21 21 18 20 22 24 23 18 23 28 25 19 18 21 19 17 17 19
35 36 39 28 26 27 31 34 26 27 24 24 25 22 17 8 6 5 4 3 5 8 10 14 16 15 14 21 24 24 26 27 22 21 21 24 22 19 22 29 23 19 18 22 21 22 25 24 25
24 40 38 29 22 24 29 33 27 24 23 25 24 22 19 13 6 4 3 4 7 10 14 17 15 19 25 24 24 24 26 25 20 20 22 24 18 16 27 26 24 23 22 20 8 18 24 25 22
36 42 43 34 27 27 31 27 28 25 23 20 17 14 10 6 4 3 4 6 10 13 17 15 23 24 25 24 22 24 24 21 20 22 24 16 10 15 18 17 21 29 25 8 8 9 11 12 14
39 40 36 30 28 29 28 26 25 24 22 18 12 8 6 5 4 4 5 9 12 17 16 24 23 18 18 22 22 22 23 22 24 25 18 7 8 8 8 10 13 11 7 7 11 15 18 19 18
38 41 39 28 26 28 20 33 22 16 10 8 7 6 5 5 4 5 8 13 17 16 25 21 15 11 9 9 17 23 25 27 26 19 6 6 7 7 6 7 7 7 9 13 17 19 19 18 19
38 41 31 20 33 26 14 13 10 19 15 9 6 5 4 5 7 12 15 17 17 26 25 19 11 9 8 7 9 17 22 19 12 6 6 6 7 7 8 8 9 11 14 18 19 20 21 19 20
25 18 20 30 18 42 36 24 27 23 19 11 10 10 11 14 16 17 17 22 27 25 22 16 11 9 6 4 5 7 7 6 6 5 6 7 7 8 9 10 12 14 17 19 19 21 21 19 20
20 24 61 58 46 84 41 21 15 27 27 18 17 18 15 15 17 23 28 29 26 18 12 9 7 6 4 4 4 4 5 5 6 6 7 7 8 9 10 11 13 15 18 19 20 20 20 20 20
40 45 59 68 78 87 33 25 25 30 20 16 17 20 21 25 29 30 29 19 13 12 7 5 5 5 4 5 5 5 6 6 7 7 7 8 9 10 11 12 13 15 18 20 20 20 21 21 21
30 26 31 38 33 45 34 30 34 25 17 19 19 22 25 29 30 21 17 19 11 6 6 6 6 6 6 6 6 7 7 7 8 8 8 9 9 10 11 13 14 16 20 22 20 20 21 23 23
23 29 28 34 68 55 47 36 43 32 22 26 25 25 29 27 23 24 25 14 9 9 8 8 8 9 9 8 8 9 9 10 10 10 11 11 11 11 12 13 15 18 24 26 23 20 20 24 26
23 25 37 45 42 83 50 51 34 16 20 28 31 35 32 30 33 35 16 8 8 8 8 8 9 10 10 11 11 11 11 11 12 13 15 15 14 15 16 16 17 19 22 26 28 24 20 22 27
32 52 38 42 52 40 48 41 21 20 30 36 37 35 36 27 12 10 10 8 7 7 7 7 8 7 8 10 11 12 14 16 17 19 21 20 22 25 25 26 26 26 26 25 26 26 23 21 26
Wind_Speed
21 21 20 20 14 6 13 8 10 18 20 20 18 19 16 15 14 4 3 7 5 0 5 7 7 4 2 5 5 6 7 7 8 8 9 9 9 10 10 10 9 9 10 10 9 8 8 9 8
24 24 22 23 9 11 12 15 15 17 23 26 22 18 19 17 14 4 6 4 4 1 5 6 6 5 4 4 6 7 9 10 9 9 10 12 11 11 11 12 12 11 10 10 9 9 10 10 10
24 27 26 21 10 15 9 16 18 20 16 19 19 21 14 15 11 7 4 4 5 3 5 6 6 7 8 8 8 8 10 11 12 12 12 13 13 13 12 12 11 11 12 12 11 12 12 12 12
25 26 26 19 18 8 8 18 22 15 18 20 19 13 12 9 8 8 7 6 6 6 6 6 7 8 9 10 9 10 11 11 12 13 13 14 15 15 15 15 14 14 14 14 14 14 14 15 15
30 30 21 18 18 12 12 19 18 14 15 15 16 16 9 11 9 8 6 7 7 6 7 7 8 10 10 11 11 12 13 13 14 14 15 15 15 15 16 17 17 17 18 18 17 16 16 17 17
29 28 19 16 15 15 19 16 13 13 16 17 16 14 10 8 8 8 6 8 8 8 8 9 10 12 12 12 12 13 13 14 14 15 16 17 18 18 18 17 18 19 19 20 20 19 19 19 20
30 24 20 18 19 18 21 15 16 15 14 15 15 14 11 8 8 8 7 8 9 9 11 12 12 11 12 12 13 13 13 13 14 15 15 16 18 18 20 20 21 21 22 22 22 23 23 24 24
31 24 18 21 22 17 21 21 17 14 19 19 16 13 12 7 8 8 8 8 9 12 14 12 12 13 12 10 11 11 13 15 16 17 17 19 20 21 22 22 22 22 23 24 24 25 24 25 26
34 25 17 19 22 20 20 23 25 22 18 18 19 14 5 9 8 9 9 11 12 12 12 13 13 12 11 12 14 16 17 18 19 20 20 21 23 23 23 23 24 25 25 26 26 27 27 27 27
34 24 19 16 17 18 16 22 21 20 17 17 16 14 12 10 10 11 12 13 13 13 13 12 12 12 14 16 17 18 19 20 21 21 22 23 24 24 24 25 25 26 26 26 27 27 27 28 28
34 25 20 19 19 23 15 20 19 18 17 16 15 14 13 12 12 13 13 14 14 14 13 12 13 15 17 18 20 21 22 22 23 23 24 24 25 25 26 26 26 26 27 26 27 27 27 27 28
30 28 28 21 22 21 17 19 18 20 19 19 15 15 14 13 13 14 14 15 15 13 13 14 16 17 19 20 21 22 22 23 24 25 25 25 25 24 24 24 25 25 26 27 27 27 27 27 27
26 30 21 24 24 22 19 20 19 21 20 16 13 14 14 14 14 15 14 14 13 13 15 16 18 20 20 21 22 23 25 26 27 26 25 23 23 23 21 21 23 24 24 24 22 23 23 23 23
29 27 23 23 23 20 20 20 21 20 19 16 15 15 15 15 15 14 14 12 13 15 17 18 20 21 22 22 24 26 27 26 26 24 23 23 22 20 21 23 23 22 22 21 22 23 23 23 22
21 23 25 22 22 22 22 22 22 19 20 18 17 16 15 16 14 14 13 14 15 17 18 20 21 22 24 26 27 27 24 24 23 20 21 20 20 21 23 25 23 22 23 23 22 21 22 23 21
19 22 24 24 21 21 20 17 22 19 18 18 18 17 16 16 15 15 15 16 17 18 20 22 23 25 27 28 27 26 23 22 22 19 17 19 20 23 22 21 21 23 22 20 21 23 24 21 19
23 20 21 19 22 20 18 12 13 20 20 19 18 18 17 18 17 16 17 17 18 20 22 24 26 29 29 29 28 28 25 23 20 17 17 20 22 19 20 20 20 20 19 19 20 21 20 18 20
26 15 18 17 22 21 22 16 17 16 20 20 20 19 18 19 17 17 18 18 20 22 24 26 29 29 29 29 29 27 21 19 16 16 18 19 18 20 19 18 17 17 17 19 19 18 20 17 18
22 16 20 20 21 23 23 24 19 15 15 20 21 20 20 18 19 18 18 19 22 24 25 28 28 27 27 25 23 21 17 15 15 17 19 19 20 18 16 15 16 17 17 18 17 17 18 17 18
20 19 17 19 18 20 18 21 23 23 17 15 17 18 17 18 19 19 18 22 23 24 26 25 23 21 21 21 19 17 15 15 17 18 18 18 18 16 15 15 16 16 16 17 16 16 16 16 17
19 18 20 14 15 14 15 18 20 21 22 19 17 16 17 20 23 21 20 22 23 24 22 19 19 19 18 18 17 16 16 17 18 16 16 16 15 14 14 14 15 16 18 18 18 17 17 17 17
21 15 15 12 14 4 9 3 3 11 16 17 17 17 19 22 24 25 24 20 23 19 16 17 17 18 18 19 17 17 18 17 16 16 16 15 14 14 15 16 17 18 18 18 17 17 18 18 19
19 17 14 12 9 7 6 3 6 10 13 13 18 20 21 22 22 21 22 22 16 14 16 17 19 20 21 20 19 17 16 17 18 16 16 16 16 17 18 19 19 20 19 19 19 18 19 19 20
20 18 16 12 8 2 7 7 0 9 11 15 14 17 17 19 19 18 15 13 13 15 17 19 21 22 22 19 17 17 18 18 18 18 17 18 19 19 21 21 21 20 21 21 20 20 21 21 21
22 15 5 3 1 3 8 8 8 9 10 12 12 13 11 10 9 10 11 11 14 16 19 22 22 21 20 18 18 19 19 20 20 20 20 21 21 22 22 22 22 22 22 22 22 22 22 22 22
22 11 4 5 4 3 7 6 5 9 9 10 10 10 9 8 9 10 11 12 15 18 20 19 18 19 20 20 20 20 20 21 21 22 22 23 24 24 24 24 24 23 23 23 24 24 24 24 23
14 7 5 5 4 3 5 4 9 10 12 12 11 11 9 9 10 10 11 13 17 19 19 18 20 21 21 21 21 20 21 21 22 23 24 24 25 26 25 25 25 24 25 25 25 26 26 26 26
13 12 5 3 3 2 5 3 6 5 8 8 10 10 10 10 10 12 14 17 20 20 20 21 24 26 24 23 22 22 21 22 23 24 25 26 27 27 27 27 27 26 26 26 26 28 28 28 28
10 11 4 5 2 2 1 2 7 6 6 7 8 9 9 11 13 17 20 23 22 22 24 26 24 23 24 24 24 24 24 24 25 26 27 28 28 28 28 28 28 28 28 28 28 29 29 29 29
16 12 9 1 3 3 1 3 5 5 6 7 7 8 12 15 18 21 18 19 20 22 23 24 26 25 24 25 25 25 25 27 27 28 29 30 30 30 29 29 29 30 30 30 30 30 31 30 30
Wind_Direction
198 200 191 183 176 194 208 167 181 164 169 166 170 171 183 171 168 212 191 174 183 93 210 229 250 305 327 269 277 288 287 294 299 304 309 313 318 325 328 332 332 337 346 349 347 334 322 322 322
195 191 188 181 188 203 207 208 187 189 186 186 175 179 187 182 191 196 152 189 254 245 240 241 256 276 310 315 291 289 295 293 293 296 295 301 305 314 319 321 322 323 325 328 327 323 320 316 311
192 184 182 186 191 203 214 199 182 200 193 188 186 201 195 197 204 206 212 248 274 258 252 260 273 279 290 295 307 306 317 311 301 299 298 301 303 303 304 307 308 307 310 309 307 307 306 307 304
188 184 183 189 181 206 194 168 203 202 186 184 196 199 208 204 213 222 234 260 279 267 261 266 280 288 290 286 286 283 291 295 297 296 293 294 295 295 296 297 298 298 299 299 300 298 297 298 300
186 182 183 197 175 215 151 195 208 193 186 187 197 202 200 207 215 230 252 275 268 262 269 277 281 286 286 287 289 288 289 292 290 287 287 285 286 289 291 293 295 293 293 294 292 291 292 294 297
186 176 193 196 184 189 174 206 182 183 188 198 210 207 209 200 213 231 256 273 277 279 279 283 286 288 290 293 292 290 291 291 291 290 289 289 288 288 288 286 284 286 291 293 291 291 290 289 290
188 182 181 193 191 198 201 177 160 193 196 194 212 215 218 217 228 241 254 266 276 282 289 291 290 291 294 295 293 293 294 293 292 293 293 293 292 290 289 289 289 287 285 283 284 286 287 287 286
186 187 178 196 202 206 206 173 173 201 195 205 213 226 226 233 247 257 266 272 277 285 291 293 297 298 299 297 300 301 300 299 300 300 298 295 292 294 293 292 292 288 287 285 283 280 278 279 280
185 186 183 186 202 196 213 181 184 200 207 205 217 239 247 241 256 269 278 284 286 289 290 293 295 296 298 301 300 301 302 304 304 304 303 299 298 298 295 293 290 290 287 287 286 283 281 279 277
184 187 178 199 183 204 220 197 203 202 209 211 224 233 242 253 261 270 278 283 287 289 288 287 287 292 296 298 300 303 303 304 303 302 299 298 297 296 295 293 292 290 290 290 287 285 284 282 280
187 181 185 197 196 200 213 202 200 212 213 218 225 234 243 250 260 270 276 280 283 283 282 283 287 292 298 304 306 307 306 304 303 301 299 298 296 294 293 293 293 293 291 288 287 287 285 283 281
190 191 195 188 203 209 199 206 197 205 215 224 220 232 242 252 261 268 273 276 275 277 282 289 294 299 303 305 305 304 304 304 303 302 300 296 297 297 297 297 297 295 294 294 291 290 287 284 279
193 194 191 193 204 204 207 204 201 213 221 235 229 233 244 255 265 271 271 267 271 278 286 292 298 303 305 304 305 306 306 305 303 300 299 298 298 299 299 299 299 299 297 295 294 294 293 291 288
206 196 190 198 203 204 206 211 214 215 224 231 234 241 253 262 266 267 265 266 274 283 290 298 303 303 304 306 307 307 306 303 299 300 298 299 299 300 298 300 301 301 300 298 299 295 293 295 291
204 197 204 204 203 204 208 210 216 215 224 231 240 250 259 263 263 258 264 269 277 286 297 301 301 303 305 307 306 305 306 302 300 300 297 296 297 299 301 301 299 296 297 298 298 297 298 299 295
185 192 197 202 204 205 205 217 222 221 227 234 243 250 254 257 256 258 265 275 285 293 297 300 303 307 308 307 307 304 305 300 299 298 295 298 299 299 299 297 294 293 293 295 295 297 297 299 301
178 190 196 200 204 203 198 220 226 227 232 238 244 248 250 254 254 263 271 284 291 297 300 304 307 309 308 306 303 302 303 298 295 294 297 301 302 299 299 297 296 294 294 300 301 297 294 297 296
184 178 185 202 202 205 202 203 219 229 233 238 243 245 250 254 258 269 280 288 294 297 302 306 307 307 306 305 304 304 299 291 287 289 297 302 297 300 300 299 299 297 300 300 299 298 293 293 290
195 179 182 201 203 207 212 215 229 231 233 236 246 255 258 257 266 275 285 288 292 298 302 305 307 308 307 307 305 303 298 288 285 290 295 294 296 298 301 300 303 301 297 298 300 299 296 300 304
174 172 184 200 202 207 221 230 235 250 243 249 254 257 267 269 269 274 282 287 294 297 302 304 307 308 310 308 309 304 295 287 290 292 292 293 294 298 300 301 301 299 298 297 297 295 301 307 311
172 183 189 197 185 199 228 255 249 252 258 258 249 253 259 268 274 279 280 288 291 297 298 300 302 307 314 311 303 299 291 287 287 286 287 288 288 292 298 304 300 296 294 293 296 303 308 312 317
170 166 199 182 174 152 204 279 270 251 247 250 254 250 258 266 273 279 284 288 291 290 289 296 300 304 307 306 301 294 286 284 282 284 284 283 289 297 300 298 296 294 292 294 299 303 307 313 317
167 156 160 142 152 161 180 224 243 230 244 245 243 252 256 261 269 276 283 287 283 282 290 292 297 300 300 299 296 292 288 284 284 284 286 292 294 294 295 294 295 298 300 299 299 300 305 313 318
154 143 134 142 149 127 180 202 131 217 224 246 256 263 268 269 269 269 270 273 276 286 290 290 292 296 298 295 293 290 289 288 288 288 286 286 290 294 298 299 299 297 297 297 296 299 306 313 317
142 140 99 52 73 195 198 208 242 262 246 258 262 269 267 259 253 257 262 270 280 283 287 292 293 293 292 294 293 292 291 290 289 287 290 293 294 295 294 296 296 298 297 298 299 301 304 305 309
157 161 144 159 168 194 192 219 228 243 248 258 247 250 251 252 257 260 267 275 286 293 293 292 292 294 296 295 294 293 291 291 289 289 290 291 295 297 297 296 295 297 298 296 296 296 298 301 305
166 164 130 103 89 124 197 199 256 252 255 263 240 237 242 248 256 265 280 292 295 294 291 295 299 299 296 294 294 293 292 291 290 289 290 292 293 294 295 295 295 294 295 296 296 297 299 301 304
168 168 145 99 103 212 205 223 232 239 263 239 220 231 239 251 262 274 284 292 299 297 292 293 299 298 296 295 292 290 291 292 293 293 294 294 294 295 295 295 294 294 295 297 297 297 298 299 302
177 177 159 159 199 155 155 189 202 253 241 224 221 236 252 265 277 286 290 295 296 295 294 293 295 300 294 290 293 296 297 296 295 296 295 294 294 293 293 293 293 293 294 296 296 297 297 299 301
182 162 179 229 191 211 290 243 227 206 196 207 237 270 281 287 293 299 305 308 303 299 294 293 295 295 296 291 291 292 294 296 297 296 295 293 294 294 295 295 295 296 296 296 297 297 297 297 297